Location: ???????
(55.4362°N, 38.1183°E)
Time: 17:36:29
(UTC+00:00)

Cosmos 2333 Rocket - Pass Details

Date: 28 October 2021
Orbit: 837 x 865 km, 70.8° (Epoch: 04 December)

Event Time Altitude Azimuth Distance (km) Brightness Sun altitude
Exits shadow 02:42:14 22° 274° (W) 1,795 3.3 -14.9°
Maximum altitude 02:43:22 24° 257° (WSW) 1,734 3.2 -14.8°
Drops below altitude 10° 02:47:49 10° 206° (SSW) 2,503 4.4 -14.1°
Sets 02:50:42 0° 193° (SSW) 3,436 5.3 -13.7°
